Lid_Strength_Index
1 1 1 1 1 1 1 1 1 1 0 0 0 0 0 1 2 1 4 2 0 -3 -2 2 3 2 1 3 3 3 7 9 8 7 7 4 5 4 3 4 3 3 4 3 1
1 1 1 1 1 1 1 1 1 1 1 0 0 0 1 1 2 3 -1 -4 -4 -4 3 4 3 2 3 3 3 5 7 7 5 5 6 4 5 4 4 4 4 4 3 2 2
2 2 1 1 1 1 1 1 1 1 1 1 1 1 1 2 2 2 -4 -4 -3 -1 2 2 2 3 4 3 4 4 7 5 5 4 4 4 5 4 5 6 4 5 4 3 2
2 2 1 1 1 1 1 1 1 0 1 1 1 1 1 2 6 2 -5 -4 -4 1 1 2 3 4 5 5 4 6 5 4 4 4 4 5 4 4 5 5 3 3 3 3 3
2 2 1 1 1 1 1 1 1 1 1 1 1 1 2 3 3 0 -5 -3 1 2 2 2 4 4 5 5 4 5 5 4 4 4 4 4 5 5 5 4 2 2 3 3 3
2 2 1 1 1 1 2 2 2 2 2 1 1 1 2 5 1 0 0 1 1 1 2 2 3 3 4 5 5 4 4 5 4 4 4 5 5 4 4 3 3 3 3 3 3
2 2 1 2 2 2 2 2 2 2 1 1 -0 1 2 3 0 -0 0 0 0 1 2 2 2 3 3 5 3 4 6 5 5 4 5 4 6 6 3 3 3 3 3 3 3
2 2 2 2 2 2 2 2 2 2 1 0 -0 2 3 0 -0 0 0 1 0 0 1 1 1 2 3 3 4 6 6 8 5 5 4 5 8 5 4 4 4 4 3 3 4
2 2 2 2 2 2 2 2 2 1 -0 -1 1 2 4 -0 2 0 0 2 1 1 1 1 2 3 4 6 7 6 9 8 7 5 5 5 7 5 3 4 4 4 4 4 4
2 2 2 2 2 2 3 2 1 2 1 1 1 3 2 3 1 1 0 1 2 2 3 3 3 6 6 7 10 9 9 8 8 6 6 6 6 5 4 4 4 4 3 4 4
2 2 2 2 2 2 3 2 3 3 2 3 3 3 3 1 1 2 1 2 2 3 5 4 6 8 6 6 6 7 8 8 7 5 6 6 6 5 4 4 4 4 4 4 4
3 3 2 2 2 2 3 2 2 1 4 2 2 2 2 2 3 2 1 3 4 6 5 6 7 5 5 6 6 6 7 8 6 6 6 6 7 5 5 4 4 4 4 4 4
3 3 3 2 2 3 2 1 -0 0 4 3 3 3 3 2 4 3 2 3 5 6 6 7 6 5 6 6 7 7 8 8 8 6 6 7 8 7 5 5 4 4 3 3 4
3 3 3 3 4 0 1 -0 -0 -0 6 6 4 3 2 2 4 2 2 3 5 6 6 6 5 6 7 7 6 8 6 7 7 8 10 7 11 8 6 6 5 5 4 4 3
3 3 3 5 2 2 1 -0 -0 1 13 6 4 1 2 4 4 3 2 3 5 6 5 7 6 6 7 7 6 7 6 6 7 8 8 8 10 9 6 7 6 5 4 4 3
4 3 3 3 2 0 -0 -0 1 7 12 7 4 5 5 4 4 3 3 2 3 5 5 6 4 5 6 5 5 5 6 7 7 8 11 9 10 10 8 7 6 5 4 4 3
4 4 3 1 2 -1 -0 1 7 10 5 7 6 5 5 6 5 5 5 6 7 8 8 7 7 5 5 6 5 6 8 11 12 12 13 8 10 9 6 6 5 5 4 4 3
4 5 2 2 -0 -1 1 5 10 7 7 5 5 5 7 6 6 6 6 7 5 6 8 10 10 7 5 6 7 7 8 11 15 13 12 8 11 9 6 5 4 4 4 3 3
5 -0 0 -0 -0 -0 3 8 8 7 6 6 6 7 7 6 6 6 6 7 6 5 8 9 10 6 6 5 6 7 9 7 10 10 12 10 9 7 5 5 5 5 4 4 3
1 1 1 -1 -1 1 5 9 6 5 5 5 8 6 8 7 7 7 7 5 6 5 4 7 10 6 6 5 5 6 6 10 10 15 14 11 10 11 8 7 5 5 5 4 3
1 3 1 -1 -0 3 7 6 5 4 4 6 7 7 7 7 7 7 7 6 5 5 5 5 7 8 6 8 9 7 8 8 8 10 14 14 11 7 7 6 6 5 4 4 3
2 5 0 1 5 4 6 5 7 5 4 5 5 6 7 6 7 7 8 7 5 5 7 6 7 10 9 6 5 6 7 7 11 12 10 11 11 5 5 5 5 5 4 3 3
4 3 0 1 7 6 5 5 5 5 5 5 6 5 5 6 8 6 7 5 5 5 7 6 8 12 10 8 6 8 7 7 7 8 12 14 12 5 5 5 4 5 4 3 3
3 6 3 3 3 5 6 6 6 4 5 4 5 5 6 7 6 7 7 6 5 5 4 4 7 10 12 10 8 8 8 7 8 11 11 10 9 7 6 6 5 4 4 4 3
3 4 4 6 5 5 5 6 6 6 4 4 5 6 6 8 7 7 6 6 5 6 5 5 10 8 8 7 7 8 8 7 8 8 10 9 9 7 6 5 5 4 4 4 4
4 5 4 5 4 5 6 6 7 6 5 6 6 5 5 7 7 8 6 7 7 6 6 5 9 8 9 7 7 8 7 7 7 7 7 8 8 5 4 4 4 4 4 4 4
1 1 3 6 5 6 6 6 6 5 5 4 5 5 6 6 5 4 4 5 5 7 7 7 9 10 12 8 8 11 8 8 7 6 7 9 7 5 5 5 5 4 4 4 4